Regional Weather Roundup
Issued by NWS

Home | Current Version | Previous Version | Text Only | Print | Product List | Glossary Off
Versions: 1 2 3 4 5 6 7 8 9 10 11 12 13 14 15 16 17 18 19 20 21 22 23 24 25 26 27 28 29 30 31 32 33 34 35 36 37 38 39 40 41 42 43 44 45 46 47 48 49 50

000
ASUS43 KFSD 030902
RWRSD

WEATHER ROUNDUP FOR SOUTH DAKOTA
NATIONAL WEATHER SERVICE SIOUX FALLS SD
400 AM CDT MON AUG 03 2015

NOTE: "FAIR" INDICATES FEW OR NO CLOUDS BELOW 12,000 FEET WITH NO
SIGNIFICANT WEATHER AND/OR OBSTRUCTIONS TO VISIBILITY.


SDZ001>005-009-010-012>017-031000-
NORTHWEST AND NORTH CENTRAL SOUTH DAKOTA

CITY           SKY/WX    TMP DP  RH WIND       PRES   REMARKS
BUFFALO          N/A     58  49  72 NE8       29.98S
FAITH            N/A     61  48  62 E3        30.01S
MOBRIDGE       CLEAR     55  54  96 N3        29.96F
$$

SDZ012>016-024>037-041>051-057-063-072>074-031000-
SOUTHWEST AND SOUTH CENTRAL SOUTH DAKOTA

CITY           SKY/WX    TMP DP  RH WIND       PRES   REMARKS
RAPID CTY ARPT CLEAR     58  52  80 N3        30.03F
PIERRE         CLEAR     58  53  84 E3        29.96S
CUSTER         CLEAR     56  48  74 CALM      30.15F
PHILIP         MOCLDY    60  56  86 N3        29.98F
PINE RIDGE     CLEAR     62  56  80 E8        30.01F
WINNER         FAIR      66  57  72 SE5       29.97F
$$

SDZ004>011-016>023-039-040-031000-
NORTHEAST SOUTH DAKOTA

CITY           SKY/WX    TMP DP  RH WIND       PRES   REMARKS
ABERDEEN       CLEAR     54  51  90 CALM      29.95S
WATERTOWN      CLEAR     57  53  86 S3        29.95F
BROOKINGS      CLEAR     57  54  88 CALM      29.97S
SISSETON         N/A     55  50  83 NW5       29.92S
$$

SDZ017-020-022-023-036>040-048>070-031000-
SOUTHEAST SOUTH DAKOTA

CITY           SKY/WX    TMP DP  RH WIND       PRES   REMARKS
SIOUX FALLS    CLEAR     61  57  87 N5        29.94S
HURON          CLEAR     59  57  93 CALM      29.95R
CHAMBERLAIN    CLEAR     58  56  92 CALM      29.97S
MITCHELL       CLEAR     58  56  93 CALM      29.95S
YANKTON        CLEAR     61  55  82 CALM      29.94F
$$

ABBREVIATIONS USED IN REMARKS
   TC - TEMPERATURE IN CELSIUS
  WCI - WIND CHILL INDEX
   HX - HEAT INDEX
  VSB - VISIBILITY



USA.gov is the U.S. government's official web portal to all federal, state and local government web resources and services.